Beaufort MCAS, SC

10:22 PM EDT on July 21, 2017 (GMT -0400)
Beaufort Marine Corps Air Station

Weather History for KNBC - January, 2012

Change the Weather History Date:

Wednesday, January 4, 2012

  Actual Average Record
Temperature  
Mean Temperature 37 °F -  
Max Temperature 50 °F 61 °F 77 °F (2004)
Min Temperature 24 °F 43 °F 21 °F (1940)
Degree Days  
Heating Degree Days 28    
Moisture  
Dew Point 18 °F    
Average Humidity 48    
Maximum Humidity 71    
Minimum Humidity 24    
Precipitation  
Precipitation 0.00 in - - ()
Sea Level Pressure  
Sea Level Pressure 30.35 in    
Wind  
Wind Speed 3 mph (SSW)    
Max Wind Speed 10 mph    
Max Gust Speed -    
Visibility 10 miles    
Events      
Averages and records for this station are not official NWS values.
T = Trace of Precipitation, MM = Missing Value Source: NWS Daily Summary

Daily Weather History Graph

Daily Weather History Graph

Search for Another Location

Airport or City:

Trip Planner

Search our weather history database for the weather conditions in past years. The results will help you decide how hot, cold, wet, or windy it might be!

Date:

Astronomy

Jan. 04, 2012 Rise Set
Actual Time 7:25 AM EST 5:30 PM EST
Civil Twilight 6:58 AM EST 5:57 PM EST
Nautical Twilight 6:27 AM EST 6:28 PM EST
Astronomical Twilight 5:57 AM EST 6:57 PM EST
Moon 1:50 PM EST (1/4) 3:14 AM EST (1/4)
Length of Visible Light 10h 59m
Length of Day
10h 05m
Waxing Gibbous, 80% of the Moon is Illuminated
Jan 4
Waxing Gibbous
Jan 9
Full
Jan 16
Last Quarter
Jan 23
New
Jan 30
First Quarter

Hourly Weather History & Observations

Time (EST) Temp. Windchill Dew Point Humidity Pressure Visibility Wind Dir Wind Speed Gust Speed Precip Events Conditions
12:56 AM 28.9 °F - 12.0 °F 49% 30.39 in 10.0 mi Calm Calm - N/A   Clear
1:56 AM 30.0 °F 25.2 °F 12.0 °F 47% 30.39 in 10.0 mi WNW 4.6 mph - N/A   Clear
2:56 AM 28.9 °F 25.2 °F 12.9 °F 51% 30.39 in 10.0 mi WNW 3.5 mph - N/A   Clear
3:56 AM 27.0 °F - 15.1 °F 61% 30.40 in 10.0 mi Calm Calm - N/A   Clear
4:56 AM 28.0 °F 22.8 °F 12.9 °F 53% 30.42 in 10.0 mi West 4.6 mph - N/A   Clear
5:56 AM 28.0 °F 24.2 °F 15.1 °F 58% 30.43 in 10.0 mi West 3.5 mph - N/A   Clear
6:56 AM 24.1 °F 19.7 °F 14.0 °F 65% 30.44 in 10.0 mi SSW 3.5 mph - N/A   Clear
7:56 AM 24.1 °F - 16.0 °F 71% 30.44 in 10.0 mi Calm Calm - N/A   Clear
8:56 AM 32.0 °F - 17.1 °F 54% 30.45 in 10.0 mi Calm Calm - N/A   Clear
9:56 AM 35.1 °F - 16.0 °F 46% 30.46 in 10.0 mi Calm Calm - N/A   Clear
10:56 AM 39.0 °F - 17.1 °F 41% 30.44 in 10.0 mi Calm Calm - N/A   Clear
11:56 AM 45.0 °F 41.2 °F 15.1 °F 30% 30.40 in 10.0 mi SSE 6.9 mph - N/A   Partly Cloudy
12:56 PM 46.0 °F 43.1 °F 16.0 °F 30% 30.36 in 10.0 mi Variable 5.8 mph - N/A   Partly Cloudy
1:56 PM 48.0 °F - 15.1 °F 27% 30.32 in 10.0 mi Variable 3.5 mph - N/A   Partly Cloudy
2:56 PM 50.0 °F - 14.0 °F 24% 30.28 in 10.0 mi South 6.9 mph - N/A   Partly Cloudy
3:56 PM 50.0 °F - 16.0 °F 26% 30.29 in 10.0 mi South 5.8 mph - N/A   Partly Cloudy
4:56 PM 48.0 °F - 28.0 °F 46% 30.27 in 10.0 mi SE 5.8 mph - N/A   Partly Cloudy
5:56 PM 45.0 °F 41.8 °F 26.1 °F 48% 30.26 in 10.0 mi SSE 5.8 mph - N/A   Clear
6:56 PM 39.9 °F 35.8 °F 27.0 °F 60% 30.27 in 10.0 mi South 5.8 mph - N/A   Clear
7:56 PM 39.0 °F 34.8 °F 28.0 °F 65% 30.28 in 10.0 mi South 5.8 mph - N/A   Clear
8:56 PM 37.0 °F 33.3 °F 27.0 °F 67% 30.27 in 10.0 mi South 4.6 mph - N/A   Clear
9:56 PM 37.0 °F 32.4 °F 24.1 °F 59% 30.26 in 10.0 mi South 5.8 mph - N/A   Scattered Clouds
10:56 PM 37.9 °F 31.5 °F 18.0 °F 45% 30.26 in 10.0 mi SSW 9.2 mph - N/A   Clear
11:56 PM 41.0 °F 34.7 °F 15.1 °F 35% 30.25 in 10.0 mi SSW 10.4 mph - N/A   Clear